Location: Ladrillo (historical)
(32.8195°N, 117.2231°W)
Time: 03:01:01
(UTC+00:00)

CZ-4B R/B - Pass Details

Date: 26 May 2022
Orbit: 703 x 801 km, 98.9° (Epoch: 04 July)

Event Time Altitude Azimuth Distance (km) Brightness Sun altitude
Rises 12:13:44 0° 14° (NNE) 3,274 7.5 -6.4°
Reaches altitude 10° 12:16:03 10° 15° (NNE) 2,353 6.8 -6.0°
Maximum altitude 12:21:16 82° 103° (ESE) 807 3.7 -5.0°
Drops below altitude 10° 12:26:31 10° 192° (SSW) 2,367 5.7 -4.0°
Sets 12:28:51 0° 193° (SSW) 3,294 6.4 -3.6°
